This is the latest recevied weather packets stored in our database for station/object K6LOT-13. If no packets are shown the sender has not sent any weather packets the latest 10 day(s).
| Time | Temp. | Humidity | Pressure | Rain* | Wind** | Luminosity | Snow |
|---|---|---|---|---|---|---|---|
| 1777914769 | 20° C | 58% | 1016.9 hPa | 0 mm | - | - | - |
| 1777914459 | 20° C | 59% | 1016.8 hPa | 0 mm | - | - | - |
| 1777914152 | 20° C | 60% | 1016.8 hPa | 0 mm | - | - | - |
| 1777913842 | 20° C | 60% | 1016.9 hPa | 0 mm | - | - | - |
| 1777913566 | 19.44° C | 61% | 1016.9 hPa | 0 mm | - | - | - |
| 1777913227 | 18.89° C | 64% | 1016.9 hPa | 0 mm | - | - | - |
| 1777912852 | 18.33° C | 65% | 1016.8 hPa | 0 mm | - | - | - |
| 1777912545 | 18.33° C | 67% | 1016.9 hPa | 0 mm | - | - | - |
| 1777912235 | 17.78° C | 67% | 1016.8 hPa | 0 mm | - | - | - |
| 1777911929 | 17.22° C | 69% | 1016.7 hPa | 0 mm | - | - | - |
| 1777911623 | 17.22° C | 70% | 1016.8 hPa | 0 mm | - | - | - |
| 1777911313 | 16.67° C | 70% | 1016.6 hPa | 0 mm | - | - | - |
| 1777911007 | 16.67° C | 70% | 1016.7 hPa | 0 mm | - | - | - |
| 1777910691 | 16.11° C | 72% | 1016.7 hPa | 0 mm | - | - | - |
| 1777910411 | 16.11° C | 72% | 1016.6 hPa | 0 mm | - | - | - |
| 1777910075 | 16.11° C | 72% | 1016.6 hPa | 0 mm | - | - | - |
| 1777909769 | 16.11° C | 73% | 1016.6 hPa | 0 mm | - | - | - |
| 1777909459 | 16.11° C | 73% | 1016.6 hPa | 0 mm | - | - | - |
| 1777909153 | 16.11° C | 73% | 1016.7 hPa | 0 mm | - | - | - |
| 1777908842 | 15.56° C | 73% | 1016.7 hPa | 0 mm | - | - | - |
| 1777908536 | 15.56° C | 73% | 1016.8 hPa | 0 mm | - | - | - |
| 1777908226 | 15.56° C | 74% | 1016.6 hPa | 0 mm | - | - | - |
| 1777907920 | 15.56° C | 74% | 1016.6 hPa | 0 mm | - | - | - |
| 1777907610 | 15.56° C | 74% | 1016.6 hPa | 0 mm | - | - | - |
| 1777907303 | 15.56° C | 75% | 1016.5 hPa | 0 mm | - | - | - |
* Rain latest hour (hover to see other rain measurements)
** Current wind speed in m/s (hover to see current wind gust speed)